This is the latest recevied weather packets stored in our database for station/object K5MGY. If no packets are shown the sender has not sent any weather packets the latest 10 day(s).
| Time | Temp. | Humidity | Pressure | Rain* | Wind** | Luminosity | Snow |
|---|---|---|---|---|---|---|---|
| 1778177484 | 22.22° C | 50% | 1041.7 hPa | 0 mm | - | 798 W/m² | - |
| 1778177181 | 21.67° C | 53% | 1041.6 hPa | 0 mm | - | 382 W/m² | - |
| 1778176878 | 21.67° C | 51% | 1042 hPa | 0 mm | - | 561 W/m² | - |
| 1778176574 | 21.67° C | 51% | 1041.7 hPa | 0 mm | - | 376 W/m² | - |
| 1778176272 | 21.67° C | 53% | 1042 hPa | 0 mm | - | 568 W/m² | - |
| 1778175968 | 21.67° C | 51% | 1041.8 hPa | 0 mm | - | 388 W/m² | - |
| 1778175666 | 21.67° C | 55% | 1042 hPa | 0 mm | - | 244 W/m² | - |
| 1778175363 | 21.11° C | 60% | 1042.1 hPa | 0 mm | - | 636 W/m² | - |
| 1778175060 | 20.56° C | 57% | 1042.4 hPa | 0 mm | - | 546 W/m² | - |
| 1778174756 | 20.56° C | 57% | 1042.5 hPa | 0 mm | - | 342 W/m² | - |
| 1778174453 | 20.56° C | 61% | 1042.6 hPa | 0 mm | - | 255 W/m² | - |
| 1778174148 | 20.56° C | 57% | 1042.4 hPa | 0 mm | - | 254 W/m² | - |
| 1778173846 | 20.56° C | 57% | 1042.6 hPa | 0 mm | - | 416 W/m² | - |
| 1778173543 | 20.56° C | 57% | 1042.9 hPa | 0 mm | - | 302 W/m² | - |
| 1778173239 | 20.56° C | 59% | 1043.2 hPa | 0 mm | - | 463 W/m² | - |
| 1778172935 | 20° C | 59% | 1043.5 hPa | 0 mm | - | 289 W/m² | - |
| 1778172632 | 19.44° C | 59% | 1043.4 hPa | 0 mm | - | 233 W/m² | - |
| 1778172328 | 20° C | 59% | 1043.4 hPa | 0 mm | - | 430 W/m² | - |
| 1778172025 | 20° C | 55% | 1043.6 hPa | 0 mm | - | 174 W/m² | - |
| 1778171723 | 20° C | 59% | 1044 hPa | 0 mm | - | 489 W/m² | - |
| 1778171421 | 20° C | 59% | 1043.6 hPa | 0 mm | - | 216 W/m² | - |
| 1778171121 | 20° C | 60% | 1043.5 hPa | 0 mm | - | 400 W/m² | - |
| 1778170818 | 20° C | 60% | 1043.9 hPa | 0 mm | - | 553 W/m² | - |
| 1778170515 | 20° C | 61% | 1043.9 hPa | 0 mm | - | 196 W/m² | - |
| 1778170212 | 19.44° C | 63% | 1044.1 hPa | 0 mm | - | 655 W/m² | - |
* Rain latest hour (hover to see other rain measurements)
** Current wind speed in m/s (hover to see current wind gust speed)